Orangeburg, SC

8:33 PM EDT on June 25, 2017 (GMT -0400)
Orangeburg Municipal

Weather History for KOGB - November, 2013

Change the Weather History Date:

Saturday, November 2, 2013

  Actual Average Record
Temperature  
Mean Temperature 64 °F 60 °F  
Max Temperature 74 °F 72 °F 91 °F (1961)
Min Temperature 53 °F 48 °F 31 °F (1993)
Degree Days  
Heating Degree Days 1 6  
Month to date heating degree days 1 12  
Since 1 July heating degree days 60 102  
Cooling Degree Days 0 1  
Month to date cooling degree days 8 2  
Year to date cooling degree days 2031 2089  
Growing Degree Days 14 (Base 50)    
Moisture  
Dew Point 53 °F    
Average Humidity 69    
Maximum Humidity 93    
Minimum Humidity 29    
Precipitation  
Precipitation 0.00 in 0.07 in 2.44 in (2015)
Month to date precipitation 0.74 0.14  
Year to date precipitation 50.11 40.63  
Sea Level Pressure  
Sea Level Pressure 29.83 in    
Wind  
Wind Speed 6 mph (WNW)    
Max Wind Speed 16 mph    
Max Gust Speed 21 mph    
Visibility 10 miles    
Events      
T = Trace of Precipitation, MM = Missing Value Source: NWS Daily Summary

Daily Weather History Graph

Daily Weather History Graph

Search for Another Location

Airport or City:

Trip Planner

Search our weather history database for the weather conditions in past years. The results will help you decide how hot, cold, wet, or windy it might be!

Date:

Astronomy

Nov. 02, 2013 Rise Set
Actual Time 7:43 AM EDT 6:30 PM EDT
Civil Twilight 7:17 AM EDT 6:56 PM EDT
Nautical Twilight 6:48 AM EDT 7:25 PM EDT
Astronomical Twilight 6:18 AM EDT 7:54 PM EDT
Moon 6:41 AM EDT (11/2) 5:59 PM EDT (11/2)
Length of Visible Light 11h 38m
Length of Day
10h 47m
Waning Crescent, 1% of the Moon is Illuminated
Nov 2
Waning Crescent
Nov 3
New
Nov 10
First Quarter
Nov 17
Full
Nov 25
Last Quarter

Hourly Weather History & Observations

Time (EDT) Temp. Dew Point Humidity Pressure Visibility Wind Dir Wind Speed Gust Speed Precip Events Conditions
12:00 AM 66.2 °F 64.4 °F 94% 29.77 in 10.0 mi WSW 5.8 mph - N/A   Overcast
12:53 AM 66.9 °F 63.0 °F 87% 29.77 in 10.0 mi West 8.1 mph - N/A   Overcast
1:21 AM 66.2 °F 62.6 °F 88% 29.77 in 10.0 mi West 9.2 mph - N/A   Overcast
1:53 AM 66.0 °F 62.1 °F 87% 29.78 in 10.0 mi West 5.8 mph - N/A   Overcast
2:53 AM 64.9 °F 62.1 °F 90% 29.77 in 8.0 mi WSW 5.8 mph - N/A   Mostly Cloudy
3:01 AM 64.4 °F 60.8 °F 88% 29.77 in 9.0 mi WSW 5.8 mph - N/A   Scattered Clouds
3:53 AM 63.0 °F 61.0 °F 93% 29.77 in 8.0 mi WSW 3.5 mph - N/A   Clear
4:53 AM 63.0 °F 60.1 °F 90% 29.77 in 9.0 mi West 4.6 mph - N/A   Clear
5:53 AM 63.0 °F 59.0 °F 87% 29.77 in 10.0 mi WNW 4.6 mph - N/A   Clear
6:53 AM 62.1 °F 57.9 °F 86% 29.80 in 10.0 mi WNW 4.6 mph - N/A   Clear
7:53 AM 61.0 °F 57.0 °F 87% 29.82 in 10.0 mi WNW 5.8 mph - N/A   Clear
8:53 AM 60.1 °F 55.0 °F 83% 29.84 in 10.0 mi WNW 5.8 mph - N/A   Clear
9:53 AM 60.1 °F 54.0 °F 80% 29.86 in 10.0 mi NW 6.9 mph - N/A   Clear
10:53 AM 63.0 °F 54.0 °F 72% 29.87 in 10.0 mi NW 5.8 mph - N/A   Clear
11:53 AM 66.0 °F 50.0 °F 56% 29.85 in 10.0 mi WNW 5.8 mph - N/A   Clear
12:53 PM 71.1 °F 46.9 °F 42% 29.85 in 10.0 mi NNW 5.8 mph - N/A   Clear
1:53 PM 71.1 °F 43.0 °F 36% 29.83 in 10.0 mi WNW 5.8 mph - N/A   Clear
2:53 PM 72.0 °F 46.9 °F 41% 29.81 in 10.0 mi West 9.2 mph - N/A   Clear
3:53 PM 73.9 °F 42.1 °F 32% 29.80 in 10.0 mi WNW 9.2 mph - N/A   Clear
4:53 PM 73.0 °F 39.9 °F 30% 29.81 in 10.0 mi WNW 12.7 mph - N/A   Clear
5:53 PM 71.1 °F 41.0 °F 34% 29.83 in 10.0 mi WNW 10.4 mph - N/A   Clear
6:53 PM 66.0 °F 43.0 °F 43% 29.85 in 10.0 mi WNW 4.6 mph - N/A   Clear
7:53 PM 59.0 °F 48.0 °F 67% 29.89 in 10.0 mi Calm Calm - N/A   Clear
8:53 PM 60.1 °F 46.0 °F 60% 29.92 in 10.0 mi NNW 4.6 mph - N/A   Clear
9:53 PM 54.0 °F 48.0 °F 80% 29.94 in 10.0 mi Calm Calm - N/A   Clear
10:53 PM 57.0 °F 45.0 °F 64% 29.98 in 10.0 mi NNW 4.6 mph - N/A   Partly Cloudy
11:53 PM 55.0 °F 45.0 °F 69% 29.99 in 10.0 mi NNW 4.6 mph - N/A   Clear